Weather History for Mackall AAF, NC

Change the Weather History Date:

Wednesday, October 17, 2012

  Actual Average Record
Temperature  
Mean Temperature 56 °F -  
Max Temperature 70 °F 70 °F 86 °F (2011)
Min Temperature 43 °F 49 °F 36 °F (2010)
Degree Days  
Heating Degree Days 9    
Growing Degree Days 6 (Base 50)    
Moisture  
Dew Point 46 °F    
Average Humidity 78    
Maximum Humidity 97    
Minimum Humidity 42    
Precipitation  
Precipitation 0.00 in - - ()
Sea Level Pressure  
Sea Level Pressure 29.98 in    
Wind  
Wind Speed 3 mph (SSE)    
Max Wind Speed 10 mph    
Max Gust Speed -    
Visibility 10 miles    
Events      
Averages and records for this station are not official NWS values.
T = Trace of Precipitation, MM = Missing Value Source: NWS Daily Summary

Daily Weather History Graph

Daily Weather History Graph

Search for Another Location

Airport:

Trip Planner

Search our weather history database for the weather conditions in past years. The results will help you decide how hot, cold, wet, or windy it might be!

Date:

Astronomy

Oct. 17, 2012 Rise Set
Actual Time 7:26 AM EDT 6:39 PM EDT
Civil Twilight 7:00 AM EDT 7:05 PM EDT
Nautical Twilight 6:30 AM EDT 7:34 PM EDT
Astronomical Twilight 6:01 AM EDT 8:04 PM EDT
Moon 9:51 AM EDT (10/17) 8:21 PM EDT (10/17)
Length of Visible Light 12h 05m
Length of Day
11h 13m
Waxing Crescent, 7% of the Moon is Illuminated
Oct 17
Waxing Crescent
Oct 21
First Quarter
Oct 29
Full
Nov 6
Last Quarter
Nov 13
New

Hourly Weather History & Observations

Time (EDT) Temp. Windchill Dew Point Humidity Pressure Visibility Wind Dir Wind Speed Gust Speed Precip Events Conditions
12:55 AM 47.1 °F - 46.2 °F 97% 29.95 in 10.0 mi Variable 1.2 mph - N/A   Clear
1:55 AM 45.7 °F - 44.4 °F 95% 29.95 in 10.0 mi North 1.2 mph - N/A   Clear
2:55 AM 44.4 °F - 43.5 °F 97% 29.96 in 10.0 mi NNW 2.3 mph - N/A   Clear
3:55 AM 43.9 °F - 43.2 °F 97% 29.95 in 10.0 mi NW 2.3 mph - N/A   Clear
4:55 AM 44.1 °F - 43.0 °F 96% 29.96 in 10.0 mi NW 1.2 mph - N/A   Clear
5:55 AM 43.3 °F 41.7 °F 42.4 °F 97% 29.97 in 10.0 mi NNW 3.5 mph - N/A   Partly Cloudy
6:55 AM 43.2 °F - 42.4 °F 97% 29.98 in 10.0 mi NNW 2.3 mph - N/A   Partly Cloudy
7:55 AM 44.1 °F - 43.0 °F 96% 30.01 in 10.0 mi NNW 1.2 mph - N/A   Clear
8:55 AM 46.9 °F - 45.7 °F 95% 30.02 in 10.0 mi NNW 2.3 mph - N/A   Clear
9:55 AM 51.1 °F - 48.7 °F 92% 30.04 in 10.0 mi Variable 1.2 mph - N/A   Clear
10:55 AM 59.0 °F - 50.0 °F 72% 30.03 in 10.0 mi Variable 1.2 mph - N/A   Clear
11:55 AM 66.2 °F - 50.0 °F 56% 30.02 in 10.0 mi Variable 3.5 mph - N/A   Clear
12:55 PM 66.9 °F - 45.7 °F 46% 30.00 in 10.0 mi South 5.8 mph - N/A   Clear
1:55 PM 67.8 °F - 45.5 °F 45% 29.98 in 10.0 mi South 5.8 mph - N/A   Partly Cloudy
2:55 PM 69.4 °F - 47.8 °F 46% 29.96 in 10.0 mi SSE 6.9 mph - N/A   Clear
3:55 PM 69.6 °F - 45.9 °F 43% 29.94 in 10.0 mi SSE 10.4 mph - N/A   Clear
4:55 PM 69.3 °F - 45.3 °F 42% 29.94 in 10.0 mi SSE 8.1 mph - N/A   Clear
5:55 PM 66.9 °F - 46.9 °F 49% 29.94 in 10.0 mi SSE 5.8 mph - N/A   Clear
6:55 PM 58.3 °F - 50.0 °F 74% 29.96 in 10.0 mi SE 2.3 mph - N/A   Clear
7:55 PM 54.0 °F - 49.5 °F 85% 29.97 in 10.0 mi SSW 2.3 mph - N/A   Clear
8:55 PM 51.1 °F - 49.1 °F 93% 29.98 in 10.0 mi SE 3.5 mph - N/A   Clear
9:55 PM 50.2 °F - 46.9 °F 89% 29.99 in 10.0 mi SE 4.6 mph - N/A   Clear
10:55 PM 51.4 °F - 47.5 °F 86% 29.99 in 10.0 mi SE 2.3 mph - N/A   Clear
11:55 PM 50.0 °F - 47.5 °F 91% 29.96 in 10.0 mi SSE 2.3 mph - N/A   Clear